QPF
0.00 0.00 0.00 0.00 0.00 0.00 0.00 0.00 0.01 0.00 0.00 0.01 0.01 0.00 0.00 0.00 0.00 0.00 0.00 0.00 0.01 0.01 0.01 0.01 0.02 0.02 0.02 0.03 0.03 0.03 0.03 0.03 0.04 0.03 0.04 0.03 0.03 0.03 0.03 0.02 0.03 0.03 0.03 0.05
0.00 0.00 0.00 0.00 0.00 0.00 0.00 0.01 0.01 0.01 0.00 0.01 0.00 0.00 0.00 0.00 0.00 0.00 0.00 0.00 0.00 0.01 0.01 0.01 0.01 0.02 0.03 0.03 0.02 0.02 0.03 0.03 0.04 0.04 0.04 0.04 0.04 0.03 0.02 0.02 0.03 0.03 0.03 0.04
0.00 0.00 0.00 0.00 0.00 0.00 0.00 0.00 0.00 0.00 0.00 0.01 0.01 0.00 0.00 0.00 0.00 0.00 0.00 0.00 0.00 0.00 0.00 0.00 0.01 0.01 0.03 0.03 0.02 0.02 0.02 0.02 0.04 0.03 0.03 0.03 0.04 0.03 0.02 0.02 0.03 0.03 0.03 0.04
0.00 0.00 0.00 0.00 0.00 0.00 0.00 0.00 0.00 0.00 0.00 0.01 0.00 0.01 0.01 0.00 0.00 0.00 0.01 0.00 0.00 0.00 0.00 0.00 0.01 0.01 0.01 0.02 0.02 0.03 0.02 0.01 0.02 0.02 0.02 0.02 0.02 0.03 0.02 0.02 0.02 0.04 0.04 0.04
0.00 0.00 0.00 0.00 0.00 0.00 0.00 0.00 0.00 0.00 0.00 0.00 0.00 0.01 0.01 0.00 0.00 0.00 0.01 0.01 0.00 0.00 0.00 0.01 0.01 0.01 0.01 0.01 0.01 0.03 0.03 0.02 0.02 0.01 0.02 0.02 0.02 0.01 0.02 0.03 0.03 0.04 0.04 0.04
0.00 0.00 0.00 0.00 0.00 0.00 0.00 0.00 0.00 0.01 0.01 0.01 0.00 0.01 0.01 0.01 0.01 0.00 0.00 0.00 0.00 0.00 0.00 0.00 0.00 0.00 0.00 0.01 0.01 0.02 0.05 0.05 0.03 0.02 0.02 0.02 0.02 0.02 0.02 0.03 0.04 0.04 0.04 0.04
0.00 0.00 0.00 0.00 0.00 0.00 0.00 0.01 0.01 0.01 0.01 0.01 0.01 0.01 0.01 0.00 0.00 0.00 0.00 0.00 0.00 0.00 0.00 0.00 0.00 0.00 0.00 0.00 0.00 0.01 0.02 0.05 0.05 0.02 0.02 0.02 0.02 0.03 0.03 0.03 0.03 0.03 0.04 0.03
0.00 0.00 0.00 0.00 0.00 0.00 0.00 0.00 0.01 0.01 0.01 0.01 0.01 0.01 0.01 0.00 0.00 0.00 0.00 0.00 0.00 0.00 0.00 0.00 0.00 0.00 0.00 0.00 0.01 0.01 0.01 0.04 0.04 0.03 0.03 0.03 0.03 0.03 0.03 0.04 0.03 0.02 0.03 0.03
0.00 0.00 0.00 0.00 0.00 0.00 0.00 0.00 0.00 0.00 0.00 0.01 0.01 0.00 0.00 0.00 0.00 0.00 0.00 0.00 0.00 0.00 0.00 0.00 0.00 0.00 0.00 0.00 0.00 0.01 0.01 0.03 0.05 0.04 0.03 0.04 0.04 0.04 0.04 0.03 0.03 0.02 0.02 0.02
0.00 0.00 0.00 0.00 0.00 0.00 0.00 0.00 0.00 0.01 0.01 0.01 0.01 0.00 0.00 0.00 0.00 0.00 0.00 0.01 0.00 0.00 0.00 0.00 0.00 0.00 0.00 0.00 0.00 0.00 0.00 0.01 0.04 0.04 0.02 0.04 0.03 0.04 0.04 0.03 0.03 0.03 0.02 0.02
0.00 0.00 0.00 0.00 0.00 0.00 0.00 0.00 0.00 0.00 0.00 0.01 0.01 0.00 0.00 0.00 0.01 0.01 0.01 0.01 0.00 0.00 0.00 0.00 0.00 0.00 0.00 0.00 0.00 0.00 0.00 0.01 0.02 0.03 0.03 0.05 0.04 0.03 0.04 0.04 0.04 0.03 0.03 0.03
0.00 0.00 0.00 0.00 0.00 0.00 0.00 0.00 0.00 0.00 0.00 0.00 0.01 0.00 0.00 0.01 0.01 0.01 0.01 0.00 0.00 0.00 0.00 0.00 0.00 0.00 0.00 0.00 0.00 0.01 0.01 0.01 0.01 0.01 0.02 0.04 0.05 0.04 0.05 0.04 0.03 0.03 0.02 0.02
0.00 0.00 0.00 0.00 0.00 0.00 0.00 0.00 0.00 0.00 0.00 0.00 0.00 0.01 0.00 0.00 0.01 0.00 0.00 0.00 0.00 0.00 0.00 0.01 0.00 0.00 0.00 0.00 0.01 0.01 0.01 0.01 0.01 0.01 0.01 0.01 0.02 0.03 0.04 0.04 0.02 0.02 0.02 0.02
0.01 0.01 0.01 0.01 0.00 0.00 0.00 0.00 0.00 0.00 0.00 0.00 0.00 0.00 0.01 0.01 0.01 0.00 0.00 0.00 0.01 0.00 0.00 0.00 0.01 0.01 0.01 0.00 0.01 0.01 0.01 0.01 0.01 0.01 0.01 0.01 0.01 0.01 0.02 0.03 0.03 0.03 0.03 0.03
0.01 0.01 0.01 0.01 0.01 0.01 0.00 0.00 0.00 0.00 0.00 0.00 0.00 0.00 0.01 0.01 0.00 0.00 0.00 0.00 0.01 0.01 0.01 0.01 0.01 0.01 0.01 0.01 0.01 0.01 0.01 0.01 0.01 0.01 0.01 0.01 0.01 0.02 0.03 0.03 0.02 0.02 0.02 0.02
0.00 0.01 0.01 0.01 0.01 0.01 0.01 0.00 0.00 0.00 0.00 0.00 0.00 0.01 0.00 0.00 0.00 0.00 0.01 0.01 0.01 0.01 0.01 0.01 0.01 0.01 0.02 0.02 0.02 0.01 0.01 0.01 0.01 0.00 0.00 0.01 0.01 0.02 0.02 0.02 0.01 0.01 0.01 0.02
0.00 0.00 0.00 0.01 0.01 0.01 0.01 0.00 0.00 0.00 0.00 0.00 0.00 0.01 0.00 0.00 0.00 0.00 0.00 0.01 0.01 0.01 0.01 0.01 0.01 0.01 0.01 0.02 0.02 0.02 0.02 0.01 0.01 0.01 0.01 0.01 0.01 0.01 0.01 0.01 0.01 0.01 0.02 0.02
0.00 0.00 0.00 0.00 0.00 0.00 0.00 0.00 0.00 0.00 0.00 0.00 0.01 0.01 0.01 0.00 0.00 0.00 0.00 0.00 0.00 0.00 0.01 0.01 0.01 0.01 0.01 0.01 0.02 0.02 0.02 0.02 0.02 0.01 0.01 0.01 0.01 0.01 0.01 0.01 0.01 0.02 0.02 0.02
0.00 0.00 0.00 0.00 0.00 0.00 0.00 0.00 0.00 0.00 0.00 0.00 0.01 0.00 0.00 0.00 0.00 0.00 0.00 0.00 0.00 0.00 0.01 0.01 0.01 0.01 0.01 0.01 0.02 0.02 0.03 0.03 0.03 0.02 0.01 0.01 0.01 0.01 0.02 0.02 0.02 0.03 0.03 0.02
0.00 0.00 0.00 0.00 0.00 0.00 0.00 0.00 0.00 0.01 0.01 0.01 0.01 0.00 0.00 0.00 0.00 0.00 0.00 0.00 0.00 0.00 0.00 0.00 0.01 0.01 0.01 0.01 0.02 0.02 0.03 0.04 0.03 0.03 0.03 0.02 0.02 0.02 0.02 0.02 0.02 0.02 0.03 0.03
0.00 0.00 0.00 0.01 0.01 0.01 0.00 0.00 0.01 0.01 0.02 0.01 0.00 0.00 0.00 0.00 0.00 0.00 0.00 0.00 0.00 0.00 0.01 0.00 0.01 0.01 0.01 0.01 0.01 0.02 0.02 0.03 0.03 0.03 0.03 0.03 0.03 0.03 0.02 0.02 0.02 0.03 0.03 0.03
0.01 0.01 0.00 0.01 0.01 0.01 0.00 0.00 0.00 0.01 0.01 0.01 0.00 0.01 0.01 0.01 0.01 0.00 0.00 0.00 0.00 0.00 0.00 0.01 0.01 0.01 0.01 0.01 0.01 0.02 0.03 0.04 0.04 0.04 0.04 0.05 0.04 0.03 0.03 0.02 0.02 0.03 0.03 0.03
0.00 0.01 0.01 0.01 0.01 0.00 0.00 0.00 0.00 0.00 0.00 0.00 0.01 0.03 0.02 0.01 0.01 0.00 0.00 0.00 0.00 0.00 0.00 0.01 0.01 0.01 0.01 0.02 0.02 0.03 0.03 0.04 0.05 0.06 0.06 0.06 0.05 0.04 0.02 0.02 0.02 0.02 0.02 0.02
0.00 0.00 0.00 0.01 0.01 0.00 0.00 0.00 0.00 0.00 0.00 0.00 0.01 0.02 0.01 0.00 0.00 0.00 0.00 0.00 0.00 0.01 0.01 0.01 0.01 0.01 0.01 0.02 0.02 0.02 0.03 0.03 0.03 0.05 0.06 0.06 0.05 0.04 0.03 0.02 0.02 0.02 0.02 0.02
0.00 0.00 0.00 0.01 0.00 0.00 0.00 0.00 0.00 0.00 0.00 0.00 0.01 0.00 0.01 0.01 0.01 0.00 0.00 0.00 0.01 0.01 0.01 0.00 0.01 0.01 0.01 0.02 0.02 0.02 0.03 0.03 0.04 0.04 0.05 0.06 0.07 0.05 0.04 0.03 0.02 0.02 0.02 0.02
0.00 0.00 0.00 0.01 0.00 0.00 0.00 0.00 0.00 0.00 0.00 0.00 0.01 0.01 0.01 0.01 0.01 0.01 0.01 0.00 0.00 0.00 0.00 0.01 0.01 0.01 0.02 0.03 0.03 0.04 0.05 0.05 0.05 0.05 0.05 0.04 0.04 0.05 0.05 0.03 0.02 0.02 0.02 0.02
MSLP
1007.84 1008.47 1008.95 1009.28 1009.45 1009.50 1009.47 1009.38 1009.26 1009.12 1008.94 1008.73 1008.49 1008.22 1007.95 1007.72 1007.56 1007.51 1007.58 1007.78 1008.08 1008.46 1008.85 1009.22 1009.50 1009.68 1009.76 1009.76 1009.70 1009.65 1009.64 1009.70 1009.85 1010.08 1010.38 1010.72 1011.08 1011.41 1011.71 1011.97 1012.21 1012.42 1012.64 1012.87
1008.44 1008.96 1009.32 1009.52 1009.59 1009.59 1009.55 1009.50 1009.44 1009.37 1009.25 1009.07 1008.82 1008.49 1008.12 1007.77 1007.48 1007.32 1007.33 1007.52 1007.86 1008.32 1008.83 1009.32 1009.72 1010.00 1010.15 1010.18 1010.14 1010.09 1010.07 1010.12 1010.27 1010.51 1010.83 1011.18 1011.53 1011.85 1012.11 1012.33 1012.51 1012.67 1012.84 1013.03
1008.91 1009.30 1009.52 1009.59 1009.57 1009.53 1009.50 1009.50 1009.54 1009.57 1009.54 1009.42 1009.16 1008.79 1008.33 1007.84 1007.41 1007.12 1007.03 1007.17 1007.51 1008.02 1008.62 1009.22 1009.74 1010.13 1010.38 1010.49 1010.50 1010.48 1010.48 1010.55 1010.71 1010.97 1011.29 1011.64 1011.98 1012.27 1012.50 1012.66 1012.79 1012.89 1013.02 1013.18
1009.22 1009.47 1009.54 1009.51 1009.42 1009.36 1009.37 1009.47 1009.63 1009.78 1009.87 1009.81 1009.58 1009.16 1008.60 1007.98 1007.40 1006.95 1006.73 1006.78 1007.08 1007.60 1008.25 1008.94 1009.57 1010.07 1010.42 1010.63 1010.72 1010.76 1010.82 1010.93 1011.13 1011.41 1011.75 1012.10 1012.43 1012.69 1012.88 1013.00 1013.08 1013.14 1013.22 1013.36
1009.33 1009.44 1009.41 1009.29 1009.18 1009.15 1009.24 1009.46 1009.76 1010.06 1010.27 1010.29 1010.08 1009.62 1008.96 1008.20 1007.45 1006.84 1006.47 1006.39 1006.62 1007.11 1007.78 1008.52 1009.23 1009.84 1010.30 1010.60 1010.79 1010.92 1011.05 1011.23 1011.47 1011.80 1012.16 1012.53 1012.86 1013.11 1013.28 1013.36 1013.40 1013.42 1013.47 1013.59
1009.23 1009.24 1009.13 1008.99 1008.90 1008.93 1009.14 1009.50 1009.95 1010.40 1010.72 1010.81 1010.61 1010.12 1009.37 1008.47 1007.56 1006.79 1006.26 1006.06 1006.19 1006.63 1007.29 1008.06 1008.83 1009.51 1010.06 1010.46 1010.74 1010.96 1011.16 1011.41 1011.72 1012.10 1012.51 1012.90 1013.25 1013.51 1013.66 1013.73 1013.74 1013.74 1013.77 1013.87
1008.96 1008.90 1008.76 1008.63 1008.59 1008.73 1009.06 1009.57 1010.16 1010.73 1011.15 1011.29 1011.10 1010.57 1009.74 1008.73 1007.69 1006.78 1006.12 1005.81 1005.85 1006.24 1006.87 1007.65 1008.45 1009.18 1009.79 1010.26 1010.62 1010.91 1011.18 1011.50 1011.87 1012.30 1012.76 1013.20 1013.58 1013.86 1014.02 1014.09 1014.10 1014.08 1014.09 1014.17
1008.55 1008.46 1008.33 1008.25 1008.29 1008.54 1008.99 1009.62 1010.33 1010.98 1011.46 1011.63 1011.44 1010.87 1009.99 1008.91 1007.78 1006.79 1006.05 1005.66 1005.65 1005.99 1006.60 1007.37 1008.18 1008.94 1009.58 1010.09 1010.49 1010.83 1011.15 1011.51 1011.93 1012.41 1012.92 1013.40 1013.83 1014.14 1014.34 1014.43 1014.44 1014.41 1014.41 1014.46
1008.09 1008.00 1007.90 1007.88 1008.01 1008.35 1008.89 1009.60 1010.36 1011.06 1011.55 1011.73 1011.52 1010.93 1010.02 1008.91 1007.77 1006.75 1006.00 1005.60 1005.58 1005.91 1006.52 1007.28 1008.09 1008.85 1009.49 1010.01 1010.42 1010.77 1011.11 1011.49 1011.94 1012.45 1012.99 1013.53 1014.00 1014.36 1014.60 1014.72 1014.75 1014.73 1014.71 1014.74
1007.65 1007.58 1007.53 1007.57 1007.76 1008.15 1008.74 1009.46 1010.23 1010.90 1011.36 1011.50 1011.27 1010.67 1009.78 1008.70 1007.60 1006.64 1005.94 1005.59 1005.61 1005.97 1006.59 1007.36 1008.16 1008.91 1009.53 1010.03 1010.42 1010.75 1011.08 1011.46 1011.91 1012.44 1013.01 1013.58 1014.10 1014.52 1014.81 1014.97 1015.03 1015.02 1015.00 1015.00
1007.30 1007.27 1007.25 1007.33 1007.56 1007.96 1008.52 1009.19 1009.89 1010.48 1010.86 1010.94 1010.68 1010.08 1009.23 1008.23 1007.24 1006.39 1005.82 1005.57 1005.68 1006.11 1006.77 1007.55 1008.34 1009.07 1009.67 1010.13 1010.49 1010.79 1011.09 1011.44 1011.88 1012.41 1012.99 1013.59 1014.15 1014.62 1014.97 1015.19 1015.29 1015.30 1015.28 1015.26
1007.09 1007.09 1007.10 1007.19 1007.41 1007.76 1008.25 1008.82 1009.38 1009.84 1010.11 1010.11 1009.81 1009.23 1008.44 1007.56 1006.71 1006.02 1005.60 1005.49 1005.72 1006.22 1006.93 1007.73 1008.53 1009.24 1009.81 1010.24 1010.57 1010.83 1011.10 1011.43 1011.85 1012.36 1012.95 1013.57 1014.17 1014.70 1015.10 1015.38 1015.53 1015.59 1015.58 1015.55
1007.02 1007.04 1007.06 1007.15 1007.32 1007.59 1007.96 1008.38 1008.78 1009.08 1009.21 1009.12 1008.78 1008.22 1007.51 1006.75 1006.05 1005.53 1005.27 1005.31 1005.64 1006.23 1006.98 1007.81 1008.60 1009.30 1009.86 1010.28 1010.59 1010.84 1011.09 1011.40 1011.81 1012.32 1012.91 1013.54 1014.17 1014.74 1015.21 1015.55 1015.77 1015.87 1015.90 1015.88
1007.05 1007.08 1007.11 1007.16 1007.27 1007.44 1007.67 1007.93 1008.16 1008.30 1008.29 1008.11 1007.73 1007.19 1006.56 1005.91 1005.35 1004.98 1004.85 1005.00 1005.42 1006.06 1006.84 1007.68 1008.48 1009.19 1009.75 1010.18 1010.51 1010.77 1011.03 1011.35 1011.76 1012.27 1012.86 1013.51 1014.17 1014.78 1015.30 1015.70 1015.98 1016.15 1016.23 1016.24
1007.12 1007.15 1007.17 1007.20 1007.24 1007.32 1007.42 1007.53 1007.60 1007.60 1007.47 1007.21 1006.80 1006.28 1005.70 1005.15 1004.70 1004.43 1004.39 1004.60 1005.06 1005.71 1006.49 1007.33 1008.13 1008.84 1009.44 1009.91 1010.28 1010.60 1010.91 1011.27 1011.70 1012.22 1012.82 1013.48 1014.15 1014.79 1015.35 1015.82 1016.17 1016.41 1016.54 1016.60
1007.16 1007.21 1007.22 1007.22 1007.22 1007.22 1007.23 1007.22 1007.18 1007.06 1006.85 1006.53 1006.11 1005.60 1005.07 1004.57 1004.18 1003.95 1003.94 1004.15 1004.59 1005.21 1005.95 1006.76 1007.55 1008.28 1008.92 1009.47 1009.93 1010.33 1010.73 1011.15 1011.63 1012.18 1012.79 1013.45 1014.12 1014.78 1015.37 1015.88 1016.29 1016.60 1016.81 1016.93
1007.15 1007.20 1007.22 1007.21 1007.18 1007.15 1007.10 1007.03 1006.92 1006.74 1006.49 1006.14 1005.71 1005.22 1004.71 1004.23 1003.85 1003.61 1003.57 1003.72 1004.08 1004.62 1005.29 1006.04 1006.81 1007.57 1008.27 1008.90 1009.47 1009.99 1010.50 1011.01 1011.56 1012.14 1012.77 1013.42 1014.09 1014.73 1015.34 1015.88 1016.35 1016.72 1016.99 1017.19
1007.10 1007.15 1007.17 1007.17 1007.15 1007.12 1007.06 1006.97 1006.84 1006.65 1006.39 1006.04 1005.62 1005.14 1004.64 1004.16 1003.75 1003.46 1003.33 1003.38 1003.62 1004.03 1004.60 1005.27 1006.01 1006.78 1007.54 1008.27 1008.96 1009.62 1010.25 1010.87 1011.48 1012.11 1012.75 1013.39 1014.03 1014.66 1015.26 1015.82 1016.31 1016.73 1017.08 1017.34
1007.04 1007.09 1007.13 1007.15 1007.15 1007.14 1007.11 1007.04 1006.93 1006.76 1006.51 1006.19 1005.79 1005.33 1004.83 1004.32 1003.86 1003.49 1003.25 1003.16 1003.25 1003.52 1003.96 1004.54 1005.24 1006.00 1006.81 1007.64 1008.45 1009.23 1009.99 1010.71 1011.40 1012.07 1012.72 1013.35 1013.96 1014.57 1015.15 1015.70 1016.21 1016.67 1017.08 1017.41
1007.07 1007.11 1007.15 1007.20 1007.23 1007.25 1007.25 1007.22 1007.14 1007.01 1006.80 1006.51 1006.14 1005.69 1005.18 1004.65 1004.13 1003.67 1003.30 1003.08 1003.01 1003.13 1003.44 1003.92 1004.55 1005.31 1006.15 1007.04 1007.95 1008.85 1009.72 1010.54 1011.30 1012.01 1012.67 1013.29 1013.88 1014.45 1015.01 1015.55 1016.07 1016.57 1017.02 1017.42
1007.25 1007.27 1007.32 1007.37 1007.42 1007.47 1007.50 1007.49 1007.45 1007.34 1007.17 1006.90 1006.56 1006.12 1005.61 1005.05 1004.48 1003.94 1003.47 1003.11 1002.91 1002.88 1003.06 1003.43 1003.99 1004.72 1005.57 1006.50 1007.49 1008.47 1009.43 1010.33 1011.15 1011.90 1012.58 1013.20 1013.78 1014.33 1014.86 1015.40 1015.93 1016.46 1016.96 1017.42
1007.62 1007.62 1007.65 1007.70 1007.75 1007.80 1007.83 1007.83 1007.80 1007.70 1007.54 1007.30 1006.97 1006.54 1006.03 1005.46 1004.86 1004.25 1003.70 1003.24 1002.91 1002.76 1002.82 1003.09 1003.57 1004.24 1005.07 1006.02 1007.04 1008.08 1009.10 1010.06 1010.94 1011.74 1012.44 1013.08 1013.66 1014.20 1014.74 1015.28 1015.83 1016.38 1016.92 1017.44
1008.18 1008.15 1008.15 1008.17 1008.20 1008.22 1008.23 1008.21 1008.15 1008.05 1007.88 1007.64 1007.31 1006.90 1006.40 1005.82 1005.20 1004.57 1003.96 1003.43 1003.01 1002.76 1002.71 1002.88 1003.27 1003.87 1004.65 1005.58 1006.60 1007.66 1008.72 1009.73 1010.66 1011.50 1012.25 1012.92 1013.52 1014.09 1014.65 1015.20 1015.78 1016.36 1016.94 1017.51
1008.87 1008.82 1008.78 1008.76 1008.74 1008.71 1008.67 1008.60 1008.50 1008.36 1008.17 1007.91 1007.59 1007.18 1006.70 1006.13 1005.52 1004.88 1004.25 1003.67 1003.20 1002.87 1002.72 1002.80 1003.09 1003.60 1004.32 1005.19 1006.18 1007.24 1008.31 1009.35 1010.32 1011.21 1012.01 1012.73 1013.38 1013.99 1014.58 1015.17 1015.77 1016.39 1017.01 1017.61
1009.62 1009.53 1009.46 1009.39 1009.31 1009.22 1009.11 1008.98 1008.82 1008.64 1008.41 1008.14 1007.82 1007.42 1006.96 1006.43 1005.84 1005.22 1004.59 1004.00 1003.48 1003.09 1002.87 1002.84 1003.03 1003.45 1004.07 1004.87 1005.80 1006.82 1007.88 1008.94 1009.94 1010.88 1011.73 1012.51 1013.22 1013.88 1014.52 1015.16 1015.80 1016.44 1017.09 1017.72
1010.31 1010.21 1010.11 1010.00 1009.87 1009.72 1009.54 1009.35 1009.14 1008.91 1008.66 1008.38 1008.06 1007.70 1007.27 1006.78 1006.23 1005.64 1005.03 1004.43 1003.89 1003.45 1003.15 1003.03 1003.12 1003.42 1003.93 1004.64 1005.49 1006.46 1007.49 1008.54 1009.57 1010.54 1011.44 1012.27 1013.04 1013.76 1014.45 1015.12 1015.80 1016.47 1017.13 1017.78
Thickness
5829 5823 5819 5825 5830 5828 5824 5819 5816 5820 5830 5823 5817 5818 5823 5828 5826 5823 5821 5818 5816 5815 5816 5814 5812 5810 5806 5803 5799 5797 5795 5793 5792 5790 5788 5786 5785 5784 5783 5782 5779 5778 5777 5776
5817 5816 5830 5835 5833 5828 5824 5817 5817 5821 5828 5822 5816 5818 5827 5829 5827 5826 5823 5820 5818 5816 5814 5812 5811 5809 5806 5802 5799 5797 5794 5793 5791 5790 5787 5785 5784 5783 5782 5780 5777 5776 5774 5773
5813 5825 5834 5828 5825 5821 5821 5819 5818 5817 5821 5825 5817 5815 5822 5828 5830 5829 5828 5827 5824 5819 5815 5812 5810 5808 5806 5802 5800 5798 5794 5792 5790 5789 5788 5785 5782 5780 5779 5777 5775 5774 5773 5772
5818 5829 5825 5821 5820 5822 5816 5828 5824 5818 5813 5813 5814 5802 5817 5825 5823 5824 5826 5827 5826 5824 5820 5817 5813 5808 5806 5804 5802 5797 5793 5791 5789 5787 5786 5782 5778 5775 5774 5774 5773 5772 5770 5769
5815 5823 5820 5816 5823 5825 5822 5830 5825 5820 5815 5812 5815 5807 5816 5826 5818 5822 5827 5827 5827 5826 5823 5818 5815 5810 5808 5805 5802 5797 5793 5789 5787 5785 5783 5779 5778 5775 5774 5772 5769 5768 5768 5766
5822 5831 5828 5827 5831 5831 5828 5824 5821 5820 5817 5796 5808 5803 5806 5822 5821 5824 5828 5829 5827 5827 5824 5820 5817 5812 5808 5805 5801 5797 5791 5787 5785 5782 5780 5777 5774 5771 5769 5766 5765 5765 5765 5764
5808 5819 5828 5831 5820 5823 5822 5811 5797 5793 5794 5796 5812 5804 5808 5826 5832 5831 5829 5829 5829 5828 5824 5819 5814 5810 5806 5803 5799 5795 5789 5784 5782 5780 5777 5775 5772 5769 5765 5764 5762 5761 5761 5760
5795 5800 5819 5825 5821 5817 5817 5815 5794 5782 5787 5800 5805 5801 5817 5831 5834 5835 5833 5831 5828 5826 5824 5819 5814 5810 5806 5802 5797 5793 5787 5783 5780 5777 5774 5772 5769 5768 5765 5761 5760 5759 5757 5756
5800 5801 5821 5826 5829 5824 5813 5814 5824 5810 5803 5795 5803 5809 5821 5830 5828 5828 5828 5826 5824 5824 5822 5819 5815 5811 5806 5801 5796 5791 5785 5781 5778 5775 5771 5768 5765 5763 5760 5758 5757 5756 5753 5753
5809 5796 5811 5820 5822 5821 5823 5821 5813 5803 5781 5778 5793 5801 5808 5814 5818 5821 5821 5820 5820 5821 5820 5817 5814 5810 5806 5801 5796 5791 5785 5779 5776 5772 5769 5766 5762 5759 5757 5755 5752 5751 5749 5748
5810 5795 5800 5807 5804 5808 5807 5809 5807 5806 5802 5784 5781 5798 5822 5818 5820 5819 5820 5820 5819 5819 5818 5815 5812 5809 5804 5800 5795 5788 5782 5777 5772 5769 5765 5762 5759 5756 5754 5751 5749 5746 5744 5743
5803 5798 5792 5801 5814 5818 5816 5812 5808 5792 5788 5794 5790 5799 5827 5824 5824 5822 5820 5819 5817 5816 5815 5813 5810 5805 5800 5795 5790 5785 5780 5775 5770 5766 5762 5758 5755 5752 5749 5747 5744 5742 5740 5738
5795 5789 5775 5780 5793 5802 5803 5808 5812 5812 5804 5794 5788 5796 5821 5821 5819 5818 5816 5813 5812 5810 5809 5807 5804 5799 5794 5790 5785 5781 5776 5772 5769 5764 5759 5754 5751 5748 5745 5742 5740 5738 5736 5734
5794 5788 5781 5776 5788 5797 5793 5797 5803 5803 5793 5792 5794 5799 5808 5808 5808 5809 5809 5808 5807 5805 5803 5800 5796 5792 5788 5783 5779 5775 5771 5769 5765 5760 5755 5751 5747 5744 5741 5739 5736 5733 5731 5729
5788 5780 5784 5790 5796 5796 5793 5793 5794 5793 5796 5792 5794 5796 5800 5802 5804 5803 5803 5803 5800 5797 5796 5794 5790 5787 5782 5778 5773 5770 5766 5763 5760 5755 5752 5748 5744 5741 5737 5734 5731 5729 5727 5725
5779 5773 5776 5776 5786 5786 5783 5789 5790 5790 5792 5792 5791 5790 5802 5803 5803 5797 5796 5795 5792 5791 5789 5788 5785 5781 5776 5773 5769 5764 5761 5758 5754 5750 5747 5744 5740 5737 5733 5730 5727 5724 5721 5719
5771 5767 5762 5766 5776 5774 5769 5781 5783 5784 5790 5789 5782 5787 5794 5791 5789 5789 5788 5788 5787 5786 5784 5781 5779 5776 5773 5769 5764 5759 5756 5753 5748 5744 5741 5739 5735 5731 5728 5726 5722 5718 5715 5713
5761 5759 5761 5762 5757 5742 5772 5790 5788 5782 5783 5787 5786 5787 5787 5785 5786 5788 5786 5783 5781 5780 5779 5777 5775 5772 5770 5765 5761 5756 5753 5747 5743 5738 5735 5732 5729 5726 5723 5719 5716 5713 5710 5707
5762 5753 5753 5752 5748 5755 5766 5776 5778 5772 5769 5779 5779 5779 5780 5782 5783 5781 5779 5778 5776 5775 5774 5772 5772 5770 5765 5759 5755 5749 5745 5741 5735 5731 5728 5726 5723 5719 5715 5712 5709 5706 5703 5700
5752 5751 5747 5743 5736 5738 5758 5772 5777 5769 5756 5770 5772 5769 5770 5770 5766 5769 5770 5769 5768 5768 5768 5766 5765 5763 5757 5753 5749 5742 5737 5732 5728 5725 5722 5719 5715 5711 5707 5704 5701 5698 5695 5692
5735 5735 5735 5735 5733 5746 5756 5763 5764 5743 5746 5759 5763 5762 5761 5758 5759 5760 5761 5759 5759 5758 5758 5758 5755 5752 5747 5744 5739 5733 5728 5724 5721 5718 5713 5709 5707 5703 5699 5695 5692 5689 5687 5684
5729 5730 5727 5729 5726 5733 5749 5752 5744 5741 5748 5751 5752 5753 5750 5749 5750 5750 5749 5748 5747 5747 5747 5746 5743 5740 5737 5734 5729 5724 5719 5716 5713 5708 5704 5701 5698 5696 5693 5687 5683 5680 5678 5675
5727 5728 5733 5730 5730 5734 5741 5740 5741 5742 5739 5741 5742 5743 5743 5740 5739 5738 5737 5737 5736 5736 5735 5734 5731 5728 5726 5724 5720 5714 5710 5707 5704 5699 5695 5692 5689 5687 5684 5679 5676 5673 5670 5669
5717 5719 5721 5718 5724 5727 5729 5732 5732 5733 5732 5733 5734 5734 5734 5731 5729 5727 5727 5726 5725 5724 5724 5722 5720 5717 5714 5712 5709 5705 5701 5698 5694 5690 5686 5683 5680 5678 5675 5673 5671 5668 5665 5661
5708 5710 5711 5708 5714 5716 5719 5720 5721 5723 5724 5724 5725 5725 5724 5722 5719 5718 5716 5715 5715 5714 5713 5711 5709 5707 5704 5701 5698 5695 5692 5688 5684 5681 5678 5676 5674 5670 5666 5664 5661 5659 5655 5652
5701 5700 5700 5702 5707 5707 5707 5711 5713 5712 5711 5713 5713 5713 5714 5713 5710 5708 5707 5705 5704 5702 5701 5699 5698 5696 5692 5690 5687 5685 5682 5679 5676 5673 5670 5669 5667 5663 5661 5657 5653 5648 5646 5641